Hyderabad, India

6:15 PM IST on April 25, 2017 (GMT +0530)
Hyderabad

Weather History for VOHY - April, 2014

Change the Weather History Date:

Tuesday, April 22, 2014

  Actual Average Record
Temperature  
Mean Temperature 88 °F -  
Max Temperature 100 °F 98 °F 109 °F (2016)
Min Temperature 76 °F 78 °F 71 °F (1997)
Cooling Degree Days 23    
Growing Degree Days 38 (Base 50)    
Moisture  
Dew Point 57 °F    
Average Humidity 28    
Maximum Humidity 68    
Minimum Humidity 13    
Precipitation  
Precipitation 0.00 in 0.04 in - ()
Sea Level Pressure  
Sea Level Pressure 29.90 in    
Wind  
Wind Speed 2 mph ()    
Max Wind Speed 14 mph    
Max Gust Speed -    
Visibility 3.8 miles    
Events      
Averages and records for this station are not official NWS values.
T = Trace of Precipitation, MM = Missing Value Source: Averaged Metar Reports

Daily Weather History Graph

Daily Weather History Graph

Search for Another Location

Airport or City:

Trip Planner

Search our weather history database for the weather conditions in past years. The results will help you decide how hot, cold, wet, or windy it might be!

Date:

Astronomy

Apr. 22, 2014 Rise Set
Actual Time 5:55 AM IST 6:33 PM IST
Civil Twilight 5:33 AM IST 6:56 PM IST
Nautical Twilight 5:07 AM IST 7:22 PM IST
Astronomical Twilight 4:40 AM IST 7:48 PM IST
Moon No Moon Rise 12:05 PM IST (4/22)
Length of Visible Light 13h 22m
Length of Day
12h 38m
Waning Gibbous, 51% of the Moon is Illuminated
Apr 22
Waning Gibbous
Apr 22
Last Quarter
Apr 29
New
May 7
First Quarter
May 15
Full

Hourly Weather History & Observations

Time (IST) Temp. Heat Index Dew Point Humidity Pressure Visibility Wind Dir Wind Speed Gust Speed Precip Events Conditions
2:30 AM 82 °F - 72 °F 63% 29.80 in 2 mi Calm Calm - -   Haze
5:30 AM 78 °F - 69 °F 68% 29.83 in 2 mi Calm Calm - -   Haze
8:10 AM 89.6 °F - 51.8 °F 27% 30.01 in 2.5 mi Calm Calm - N/A   Haze
8:30 AM 88 °F - 67 °F 39% 29.86 in 6 mi Calm Calm - -  
9:10 AM 96.8 °F - 46.4 °F 18% 30.01 in 3.1 mi Calm Calm - N/A   Haze
11:30 AM 96 °F - 61 °F 22% 29.87 in 6 mi Calm Calm - -   Scattered Clouds
12:10 PM 102.2 °F - 44.6 °F 14% 30.01 in 3.7 mi East 9.2 mph - N/A   Unknown
2:10 PM 104.0 °F - 44.6 °F 13% 29.95 in 3.7 mi ENE 6.9 mph - N/A   Scattered Clouds
2:30 PM 99 °F - 64 °F 23% 29.75 in 6 mi 2.3 mph - -   Scattered Clouds
3:10 PM 104.0 °F - 48.2 °F 15% 29.92 in 3.7 mi East 8.1 mph - N/A   Scattered Clouds
4:10 PM 102.2 °F - 50.0 °F 17% 29.92 in 3.7 mi ESE 13.8 mph - N/A   Scattered Clouds
5:10 PM 100.4 °F - 50.0 °F 18% 29.92 in 3.7 mi East 3.5 mph - N/A   Scattered Clouds
5:30 PM 97 °F - 65 °F 25% 29.75 in 6 mi 2.3 mph - -   Scattered Clouds
6:10 PM 95.0 °F - 51.8 °F 23% 29.95 in 3.1 mi East 3.5 mph - N/A   Haze
7:10 PM 95.0 °F - 51.8 °F 23% 29.95 in 3.1 mi East 3.5 mph - N/A   Haze
8:10 PM 93.2 °F 90.8 °F 53.6 °F 26% 29.98 in 3.1 mi ESE 3.5 mph - N/A   Haze
8:30 PM 91 °F - 65 °F 32% 29.82 in 6 mi Calm Calm - -   Scattered Clouds
9:10 PM 91.4 °F 89.1 °F 53.6 °F 28% 29.98 in 3.1 mi ENE 3.5 mph - N/A   Haze
11:30 PM 85 °F - 68 °F 47% 29.86 in 2 mi Calm Calm - -   Haze